TimeCDT,TemperatureF,Dew PointF,Humidity,Sea Level PressureIn,VisibilityMPH,Wind Direction,Wind SpeedMPH,Gust SpeedMPH,PrecipitationIn,Events,Conditions,WindDirDegrees,DateUTC
12:56 AM,59.0,55.9,90,30.15,10.0,South,8.1,-,N/A,,Clear,180,2012-10-05 05:56:00
1:56 AM,59.0,55.9,90,30.14,10.0,South,5.8,-,N/A,,Clear,170,2012-10-05 06:56:00
2:56 AM,57.9,55.9,93,30.14,10.0,SSE,3.5,-,N/A,,Clear,160,2012-10-05 07:56:00
3:56 AM,59.0,56.8,93,30.13,10.0,South,8.1,-,N/A,,Clear,190,2012-10-05 08:56:00
4:56 AM,59.0,57.9,96,30.10,9.0,SSE,9.2,-,N/A,,Clear,160,2012-10-05 09:56:00
5:56 AM,59.0,56.8,93,30.10,9.0,South,8.1,-,N/A,,Clear,170,2012-10-05 10:56:00
6:56 AM,56.8,55.9,97,30.12,7.0,NNW,6.9,-,N/A,,Clear,340,2012-10-05 11:56:00
7:56 AM,57.9,57.9,100,30.12,5.0,East,4.6,-,N/A,,Clear,90,2012-10-05 12:56:00
8:56 AM,66.9,61.0,81,30.12,10.0,Calm,Calm,-,N/A,,Mostly Cloudy,0,2012-10-05 13:56:00
9:56 AM,72.0,61.9,70,30.10,10.0,SSE,6.9,-,N/A,,Clear,160,2012-10-05 14:56:00
10:56 AM,77.9,61.9,58,30.09,10.0,SSW,16.1,-,N/A,,Scattered Clouds,210,2012-10-05 15:56:00
11:56 AM,77.9,63.9,62,30.07,10.0,South,11.5,-,N/A,,Scattered Clouds,190,2012-10-05 16:56:00
12:56 PM,77.0,63.9,64,30.04,10.0,SSW,10.4,-,N/A,,Clear,210,2012-10-05 17:56:00
1:56 PM,74.8,63.9,69,30.03,6.0,SW,4.6,-,N/A,,Haze,220,2012-10-05 18:56:00
2:56 PM,72.0,65.8,81,29.97,10.0,SSE,6.9,-,0.00,,Mostly Cloudy,160,2012-10-05 19:56:00
3:20 PM,73.4,64.4,73,29.97,5.0,South,5.8,-,N/A,Thunderstorm,Haze,180,2012-10-05 20:20:00
3:36 PM,69.8,64.4,83,30.01,5.0,NW,23.0,35.7,0.00,Rain-Thunderstorm,Light Thunderstorms and Rain,320,2012-10-05 20:36:00
3:44 PM,66.2,64.4,94,29.98,1.8,NE,6.9,-,0.15,Rain-Thunderstorm,Heavy Thunderstorms and Rain,50,2012-10-05 20:44:00
3:47 PM,66.2,64.4,94,29.98,1.2,NNE,8.1,-,0.24,Rain-Thunderstorm,Heavy Thunderstorms and Rain,30,2012-10-05 20:47:00
3:56 PM,65.8,64.9,97,29.98,4.0,NNW,3.5,-,0.25,Rain-Thunderstorm,Light Thunderstorms and Rain,330,2012-10-05 20:56:00
4:31 PM,66.2,66.2,100,29.97,5.0,North,18.4,21.9,0.00,,Mostly Cloudy,360,2012-10-05 21:31:00
4:56 PM,61.0,59.9,96,29.98,10.0,North,15.0,-,0.00,,Overcast,360,2012-10-05 21:56:00
5:03 PM,60.8,59.0,94,29.97,10.0,North,13.8,20.7,N/A,,Overcast,10,2012-10-05 22:03:00
5:14 PM,60.8,57.2,88,30.00,10.0,North,13.8,23.0,0.00,Rain-Thunderstorm,Light Thunderstorms and Rain,360,2012-10-05 22:14:00
5:29 PM,59.0,57.2,94,30.03,2.0,NNW,18.4,-,0.01,Rain-Thunderstorm,Thunderstorms and Rain,330,2012-10-05 22:29:00
5:39 PM,57.2,55.4,94,30.05,5.0,NNW,24.2,-,0.03,Rain-Thunderstorm,Light Thunderstorms and Rain,330,2012-10-05 22:39:00
5:56 PM,55.9,54.9,96,30.05,10.0,North,24.2,31.1,0.04,Rain-Thunderstorm,Light Thunderstorms and Rain,350,2012-10-05 22:56:00
6:09 PM,55.4,53.6,94,30.06,10.0,North,18.4,25.3,0.01,Rain-Thunderstorm,Light Thunderstorms and Rain,350,2012-10-05 23:09:00
6:19 PM,53.6,51.8,94,30.08,9.0,North,19.6,27.6,0.03,Rain-Thunderstorm,Rain,350,2012-10-05 23:19:00
6:27 PM,53.6,51.8,94,30.08,7.0,North,15.0,26.5,0.04,Rain,Rain,360,2012-10-05 23:27:00
6:35 PM,51.8,51.8,100,30.11,9.0,NNW,19.6,23.0,0.05,Rain-Thunderstorm,Light Thunderstorms and Rain,340,2012-10-05 23:35:00
6:56 PM,52.0,50.9,96,30.10,6.0,North,16.1,-,0.17,Rain-Thunderstorm,Light Thunderstorms and Rain,350,2012-10-05 23:56:00
7:04 PM,51.8,51.8,100,30.09,10.0,North,12.7,-,0.01,Rain,Light Rain,360,2012-10-06 00:04:00
7:56 PM,50.0,48.9,96,30.13,10.0,North,12.7,-,0.05,Rain,Light Rain,360,2012-10-06 00:56:00
8:38 PM,48.2,46.4,93,30.16,10.0,North,19.6,-,0.05,Rain,Light Rain,360,2012-10-06 01:38:00
8:56 PM,47.8,45.9,93,30.17,10.0,North,17.3,24.2,0.05,Rain,Light Rain,360,2012-10-06 01:56:00
9:34 PM,48.2,46.4,93,30.18,10.0,North,12.7,-,0.00,Rain,Light Rain,360,2012-10-06 02:34:00
9:43 PM,46.4,46.4,100,30.19,10.0,North,15.0,-,0.00,Rain,Light Rain,360,2012-10-06 02:43:00
9:56 PM,46.9,45.9,96,30.19,10.0,North,11.5,-,0.00,,Overcast,360,2012-10-06 02:56:00
10:56 PM,46.9,43.9,89,30.19,10.0,North,10.4,-,0.01,,Mostly Cloudy,10,2012-10-06 03:56:00
11:06 PM,46.4,44.6,93,30.19,10.0,North,12.7,17.3,N/A,,Overcast,10,2012-10-06 04:06:00
11:56 PM,46.9,43.9,89,30.20,10.0,North,12.7,18.4,0.00,,Overcast,10,2012-10-06 04:56:00